Location: Pedro
(43.9050°N, 104.3408°W)
Time: 18:02:04
(UTC+00:00)

ISS - Visible Passes

Search period start: 19 January 2022 00:00
Search period end: 29 January 2022 00:00
Orbit: 413 x 422 km, 51.6° (Epoch: 19 January)

Date Brightness Start Highest point End Pass type
(mag) Time Alt. Az. Time Alt. Az. Time Alt. Az.
19 Jan -2.5 00:58:08 10° SSW 01:00:58 26° SE 01:02:14 21° E visible
19 Jan -0.7 02:34:22 10° WSW 02:35:11 16° W 02:35:11 16° W visible
20 Jan -3.6 01:46:17 10° WSW 01:49:25 69° WNW 01:49:25 69° WNW visible
21 Jan -3.8 00:58:20 10° SW 01:01:39 72° SE 01:03:34 23° ENE visible
21 Jan -0.7 02:35:43 10° WNW 02:36:31 15° WNW 02:36:31 15° WNW visible
22 Jan -2.7 01:47:26 10° W 01:50:33 35° NNW 01:50:36 35° NNW visible
23 Jan -3.2 00:59:13 10° WSW 01:02:28 49° NNW 01:04:38 19° NE visible
23 Jan -0.6 02:37:06 10° WNW 02:37:34 12° NW 02:37:34 12° NW visible
24 Jan -2.1 01:48:48 10° WNW 01:51:34 24° NNW 01:51:34 24° NNW visible
25 Jan -2.3 01:00:28 10° WNW 01:03:25 28° NNW 01:05:31 15° NE visible
25 Jan -0.5 02:38:15 10° NW 02:38:27 11° NW 02:38:27 11° NW visible
26 Jan -1.9 01:50:03 10° NW 01:52:23 21° N 01:52:23 21° N visible
27 Jan -2.0 01:01:45 10° WNW 01:04:26 22° N 01:06:19 14° NE visible
27 Jan -0.6 02:39:02 10° NW 02:39:15 11° NW 02:39:15 11° NW visible
28 Jan -2.0 01:50:58 10° NW 01:53:10 22° N 01:53:10 22° N visible
